Location: Göttingen
(51.5413°N, 9.9158°E)
Time: 11:42:20
(UTC+02:00)

EO-88 - Pass Details

Date: 02 July 2022
Orbit: 453 x 461 km, 97.3° (Epoch: 13 August)

Event Time Altitude Azimuth Distance (km) Brightness Sun altitude
Exits shadow 23:22:54 - 201° (SSW) 1,923 ? -10.8°
Reaches altitude 10° 23:23:43 10° 207° (SSW) 1,626 ? -10.9°
Maximum altitude 23:26:41 26° 265° (W) 971 ? -11.1°
Drops below altitude 10° 23:29:40 10° 324° (NW) 1,636 ? -11.3°
Sets 23:31:58 0° 337° (NNW) 2,517 ? -11.5°
